FW1302 Weather Reports


Display with metric or nautical units.
time (UTC)temp
F
wind
direction
speed
MPH
gust
MPH
rain 1hr
in
rain 24hr
in
rain mn
in
humidity
%
barometer
mb
20260502183620 56 225 2.0 3.0 0.00 0.00 0.00 78 1026.3
20260502182617 56 210 1.0 4.0 0.00 0.00 0.00 79 1026.6
20260502181617 56 225 6.0 9.0 0.00 0.00 0.00 79 1026.5
20260502180717 56 204 2.0 9.0 0.00 0.00 0.00 79 1026.5
20260502163818 54 233 4.0 5.0 0.00 0.00 0.00 82 1026.7
20260502161820 53 225 4.0 4.0 0.00 0.00 0.00 84 1026.9
20260502160817 53 225 4.0 4.0 0.00 0.00 0.00 83 1026.8
20260502151917 52 211 5.0 10.0 0.00 0.00 0.00 85 1027.0
20260502150917 52 223 5.0 6.0 0.00 0.00 0.00 86 1026.9
20260502122817 52 220 8.0 11.0 0.00 0.00 0.00 85 1026.0
20260502121820 52 225 10.0 12.0 0.00 0.00 0.00 86 1025.9
20260502120916 52 232 8.0 14.0 0.00 0.00 0.00 86 1026.0
20260502115917 52 226 10.0 14.0 0.00 0.00 0.00 85 1025.8
20260502114019 52 225 8.0 11.0 0.00 0.00 0.00 85 1025.7
20260502113117 53 225 5.0 7.0 0.00 0.00 0.00 84 1025.8
20260502111118 53 225 0.0 1.0 0.00 0.00 0.00 84 1025.8
20260502110217 53 225 4.0 5.0 0.00 0.00 0.00 84 1026.1
20260502104316 53 223 6.0 8.0 0.00 0.00 0.00 83 1026.3
20260502103317 53 212 8.0 12.0 0.00 0.00 0.00 83 1026.4
20260502102318 53 218 7.0 11.0 0.00 0.00 0.00 82 1026.5
20260502101319 53 225 6.0 8.0 0.00 0.00 0.00 82 1026.4
20260502100317 54 221 4.0 6.0 0.00 0.00 0.00 82 1026.5
20260502091418 54 229 8.0 13.0 0.00 0.00 0.00 80 1027.4
20260502090418 54 226 12.0 16.0 0.00 0.00 0.00 81 1027.4
20260502071417 56 211 12.0 17.0 0.00 0.00 0.00 76 1026.6
20260502070418 57 219 10.0 15.0 0.00 0.00 0.00 75 1026.8
20260502064524 57 223 12.0 18.0 0.00 0.00 0.00 76 1026.1
20260502063525 58 211 10.0 13.0 0.00 0.00 0.00 73 1026.1
20260502062525 58 225 9.0 14.0 0.00 0.00 0.00 72 1026.3
20260502061526 59 212 10.0 15.0 0.00 0.00 0.00 71 1026.3
20260502055527 60 217 12.0 22.0 0.00 0.00 0.00 69 1026.1
20260502053524 61 210 14.0 23.0 0.00 0.00 0.00 68 1026.0
20260502051524 62 224 10.0 15.0 0.00 0.00 0.00 65 1025.9
20260502051425 62 220 7.0 11.0 0.00 0.00 0.00 64 1026.0
20260502050426 63 224 14.0 18.0 0.00 0.00 0.00 62 1025.6
20260502050327 63 222 12.0 18.0 0.00 0.00 0.00 62 1025.6
20260502044326 64 227 8.0 10.0 0.00 0.00 0.00 60 1025.2
20260502043326 65 225 10.0 13.0 0.00 0.00 0.00 57 1025.1
20260502042327 66 223 7.0 11.0 0.00 0.00 0.00 55 1024.8
20260502041425 67 223 8.0 11.0 0.00 0.00 0.00 53 1024.9
20260502040426 67 224 9.0 14.0 0.00 0.00 0.00 54 1024.9
20260502034425 67 213 4.0 7.0 0.00 0.00 0.00 55 1024.7
20260502032526 68 219 7.0 11.0 0.00 0.00 0.00 55 1024.2
20260502031428 68 223 7.0 10.0 0.00 0.00 0.00 54 1024.3
20260502030429 69 226 9.0 13.0 0.00 0.00 0.00 53 1024.3
20260502025525 69 226 8.0 11.0 0.00 0.00 0.00 53 1024.3
20260502024525 70 225 11.0 14.0 0.00 0.00 0.00 52 1024.0
20260502021526 70 225 10.0 13.0 0.00 0.00 0.00 50 1023.6
20260502020624 71 228 11.0 15.0 0.00 0.00 0.00 50 1023.7
20260502014627 71 227 13.0 18.0 0.00 0.00 0.00 49 1023.6
20260502013626 71 227 16.0 20.0 0.00 0.00 0.00 49 1023.6
20260502012625 71 233 12.0 17.0 0.00 0.00 0.00 48 1023.4
20260502011633 71 221 13.0 21.0 0.00 0.00 0.00 49 1023.3
20260502010727 71 221 15.0 18.0 0.00 0.00 0.00 50 1023.1
20260502005824 71 225 15.0 19.0 0.00 0.00 0.00 50 1023.1
20260502004826 72 223 14.0 20.0 0.00 0.00 0.00 50 1022.9
20260502003924 71 223 18.0 24.0 0.00 0.00 0.00 50 1022.8
20260502001926 71 226 12.0 16.0 0.00 0.00 0.00 51 1023.0
20260502001025 72 219 12.0 16.0 0.00 0.00 0.00 50 1022.9
20260502000026 72 223 11.0 15.0 0.00 0.00 0.00 50 1022.9
20260501234026 72 222 11.0 21.0 0.00 0.00 0.00 47 1023.0
20260501233027 73 216 10.0 17.0 0.00 0.00 0.00 48 1023.1
20260501232025 73 220 11.0 14.0 0.00 0.00 0.00 48 1023.1
20260501231024 73 227 11.0 14.0 0.00 0.00 0.00 47 1023.2
20260501225027 72 231 9.0 11.0 0.00 0.00 0.00 48 1023.7
20260501224124 72 205 8.0 14.0 0.00 0.00 0.00 49 1023.9
20260501222225 71 225 14.0 18.0 0.00 0.00 0.00 51 1024.2
20260501221226 70 224 12.0 19.0 0.00 0.00 0.00 50 1024.3
20260501220225 70 219 12.0 16.0 0.00 0.00 0.00 51 1024.7
20260501215324 70 210 9.0 14.0 0.00 0.00 0.00 52 1024.7
20260501214325 70 227 11.0 14.0 0.00 0.00 0.00 52 1024.8
20260501213327 70 224 13.0 16.0 0.00 0.00 0.00 52 1025.0
20260501213227 70 218 10.0 14.0 0.00 0.00 0.00 51 1025.0
20260501212226 70 223 6.0 10.0 0.00 0.00 0.00 52 1025.1
20260501212126 70 222 9.0 13.0 0.00 0.00 0.00 51 1025.1
20260501211125 69 223 7.0 11.0 0.00 0.00 0.00 52 1025.3
20260501210127 69 226 10.0 15.0 0.00 0.00 0.00 52 1025.3
20260501205124 69 225 8.0 10.0 0.00 0.00 0.00 51 1025.3
20260501204124 69 220 9.0 11.0 0.00 0.00 0.00 51 1025.4
20260501203125 69 214 5.0 9.0 0.00 0.00 0.00 50 1025.5
20260501202125 69 231 9.0 12.0 0.00 0.00 0.00 51 1025.5
20260501201124 68 211 7.0 11.0 0.00 0.00 0.00 52 1025.6
20260501200125 68 197 7.0 11.0 0.00 0.00 0.00 50 1025.7
20260501195124 68 203 6.0 12.0 0.00 0.00 0.00 51 1025.9
20260501194126 67 230 6.0 10.0 0.00 0.00 0.00 51 1026.0
20260501193125 67 208 4.0 9.0 0.00 0.00 0.00 53 1026.2
20260501192124 66 212 4.0 10.0 0.00 0.00 0.00 52 1026.3
20260501191124 65 223 8.0 11.0 0.00 0.00 0.00 55 1026.5
20260501191025 65 223 8.0 11.0 0.00 0.00 0.00 55 1026.5
20260501185026 65 201 5.0 12.0 0.00 0.00 0.00 53 1026.7